User: anonymous   Login
Location: Mentone
(34.5413°N, 85.5351°W)
Time: 21:34:41
(UTC-05:00)
Language:

UOSAT-12 - Orbit

View from above orbital plane
View from above orbital plane
View from above satellite
View from above satellite

Ground track
Ground track

The orbit data is extracted from the following two-line orbital elements,

1 25693U 99021A   16236.47707866 -.00000046  00000-0  12417-4 0  9999
2 25693  64.5573 323.1754 0004568 300.0289  60.0362 14.80671483936082
Epoch (UTC): 23 August 2016 11:26:59
Eccentricity: 0.0004568
inclination: 64.5573°
perigee height: 624 km
apogee height: 630 km
right ascension of ascending node: 323.1754°
argument of perigee: 300.0289°
revolutions per day: 14.80671483
mean anomaly at epoch: 60.0362°
orbit number at epoch: 93608

The dashed part of the orbit path shows where the satellite is in the earth's shadow,  

DLR